Regional Weather Roundup
Issued by NWS State College, PA

Home | Current Version | Previous Version | Text Only | Print | Product List | Glossary On
Versions: 1 2 3 4 5 6 7 8 9 10 11 12 13 14 15 16 17 18 19 20 21 22 23 24 25 26 27 28 29 30 31 32 33 34 35 36 37 38 39 40 41 42 43 44 45 46 47 48 49 50
000
ASUS41 KCTP 291510
RWRCTP

REGIONAL WEATHER ROUNDUP
NATIONAL WEATHER SERVICE STATE COLLEGE PA
1100 AM EDT MON AUG 29 2016

Note: "fair" indicates few or no clouds below 12,000 feet with no
significant weather and/or obstructions to visibility.

* = STATION THAT DOES NOT REPORT PRECIPITATION /E.G. RAIN...SNOW...ETC/
    THUNDER OR FOG.

PAZ002>004-007>009-013>016-020>023-029>032-291600-
WESTERN PENNSYLVANIA

CITY           SKY/WX    TMP DP  RH WIND       PRES   REMARKS
ERIE           SUNNY     77  63  61 N5        30.27R
MEADVILLE      SUNNY     74  58  57 NE10      30.29S
FRANKLIN*        N/A     73  59  60 N3        30.29S
NEW CASTLE     FAIR      76  62  62 NE5       30.28S
BEAVER COUNTY  MOSUNNY   77  66  69 N3        30.28S
BUTLER*        NOT AVBL
PITTSBURGH INT PTSUNNY   73  66  78 E5        30.27S
PITTSBURGH     CLOUDY    70  66  87 NE5       30.27S
INDIANA*       PTSUNNY   73  68  83 VRB5      30.30S
LATROBE        PTSUNNY   72  72 100 VRB5      30.28R
WASHINGTON CO* CLOUDY    70  68  94 NE8       30.28S
$$

PAZ004>006-010>012-017>019-024>028-033>037-041-042-045-046-049>053-291600-
CENTRAL PENNSYLVANIA

CITY           SKY/WX    TMP DP  RH WIND       PRES   REMARKS
BRADFORD       SUNNY     73  58  59 VRB6      30.30R
DUBOIS         SUNNY     75  62  64 N5        30.27S
CLEARFIELD     NOT AVBL
JOHNSTOWN      CLOUDY    71  67  87 NE8       30.30S
ALTOONA        PTSUNNY   76  68  76 VRB3      30.28R
STATE COLLEGE  PTSUNNY   75  68  78 VRB3      30.25S
WILLIAMSPORT   MOSUNNY   82  62  50 NW7       30.19F
SELINSGROVE    CLOUDY    82  70  66 VRB6      30.20F
FT INDIANTOWN  MOSUNNY   83  67  59 N8        30.19S
CAPITAL CITY   SUNNY     84  67  56 NW7       30.19S
HARRISBURG     MOSUNNY   83  70  64 NW8       30.18S
YORK           SUNNY     84  67  56 NE9       30.19S
$$

PAZ038>040-043-044-047-048-054-055-060>062-067>071-291600-
EASTERN PENNSYLVANIA

CITY           SKY/WX    TMP DP  RH WIND       PRES   REMARKS
SCRANTON       SUNNY     79  63  57 NW9       30.21S
MOUNT POCONO   MOSUNNY   74  61  63 NW13G18   30.23S
ALLENTOWN      MOSUNNY   83  68  60 VRB3      30.16S
QUAKERTOWN*    MOSUNNY   84  68  58 CALM      30.18S
READING        SUNNY     82  68  62 N6        30.16F
LANCASTER      MOSUNNY   85  71  63 VRB3      30.17F
COATESVILLE    SUNNY     81  68  65 N9        30.19F
POTTSTOWN      SUNNY     84  69  60 N7        30.17F
BLUE BELL      SUNNY     82  68  61 NW3       30.15F
DOYLESTOWN     SUNNY     87  71  58 NE6       30.15F
WILLOW GROVE   NOT AVBL
NORTH PHILA    SUNNY     86  69  56 N8        30.15F
PHILADELPHIA   PTSUNNY   85  67  54 NW6       30.14F
$$




USA.gov is the U.S. government's official web portal to all federal, state and local government web resources and services.